Location: Ab? ar R?sh Ba?r?
(24.1861°N, 32.8847°E)
Time: 05:30:59
(UTC+00:00)

CZ-4B R/B - Pass Details

Date: 25 May 2022
Orbit: 809 x 881 km, 99.1° (Epoch: 01 July)

Event Time Altitude Azimuth Distance (km) Brightness Sun altitude
Rises 17:37:56 0° 202° (SSW) 3,316 6.2 -14.7°
Reaches altitude 10° 17:40:57 10° 220° (SW) 2,394 5.7 -15.3°
Maximum altitude 17:44:32 18° 263° (W) 1,885 5.7 -16.0°
Drops below altitude 10° 17:48:09 10° 306° (NW) 2,422 6.9 -16.7°
Sets 17:51:16 0° 324° (NW) 3,370 7.6 -17.3°
